Regional Weather Roundup
Issued by NWS Nashville, TN

Home | Current Version | Previous Version | Text Only | Print | Product List | Glossary On
Versions: 1 2 3 4 5 6 7 8 9 10 11 12 13 14 15 16 17 18 19 20 21 22 23 24 25 26 27 28 29 30 31 32 33 34 35 36 37 38 39 40 41 42 43 44 45 46 47 48 49 50
000
ASUS44 KOHX 130210
RWROHX
MIDDLE TENNESSEE HOURLY WEATHER ROUNDUP
NATIONAL WEATHER SERVICE NASHVILLE TN
800 PM CST FRI FEB 12 2016

NOTE: "FAIR" INDICATES FEW OR NO CLOUDS BELOW 12,000 FEET WITH
NO SIGNIFICANT WEATHER AND/OR OBSTRUCTIONS TO VISIBILITY.

* THESE REPORTS ARE NOT UNDER NWS QUALITY CONTROL AND MAY NOT
  REPORT WEATHER SUCH AS PRECIPITATION AND FOG.


TNZ005>011-023>034-057-059-062>066-078-080-130300
...NORTHERN MIDDLE TENNESSEE...

CITY           SKY/WX    TMP DP  RH WIND       PRES   REMARKS
CLARKSVILLE    PTCLDY    32  20  61 NW16      30.36R WCI  21
CROSSVILLE     CLOUDY    30  22  72 NW16G23   30.20R WCI  19
DICKSON        CLEAR     30  21  69 NW10      30.32R WCI  21
LEBANON        CLOUDY    32  24  72 N13       30.30R WCI  22
LIVINGSTON     CLOUDY    30  22  72 NW13      30.25R WCI  20
NASHVILLE      PTCLDY    34  23  64 NW10G17   30.33R WCI  26
PORTLAND       CLOUDY   N/A N/A N/A NW10      30.31R
ROCKWOOD       CLOUDY    30  24  78 NW8       30.19R WCI  22
SMYRNA         PTCLDY    33  24  70 NW9       30.34R WCI  25
SPARTA         MOCLDY    34  25  69 N9        30.26R WCI  26
$$
TNZ056-058-060-061-075>077-079-093>097-130300
...SOUTHERN MIDDLE TENNESSEE...

CITY           SKY/WX    TMP DP  RH WIND       PRES   REMARKS
COLUMBIA       PTCLDY    36  27  69 N7        30.31R WCI  30
FAYETTEVILLE   CLOUDY    37  27  65 NW7G18    30.28R WCI  32
LEWISBURG      CLEAR     35  26  70 N13       30.30R WCI  26
MCMINNVILLE    MOCLDY    34  27  75 NW10      30.28R WCI  26
SHELBYVILLE    CLEAR     34  28  80 N7        30.31R WCI  28
TULLAHOMA      CLEAR     32  27  80 N13       30.28R WCI  22
WINCHESTER     CLEAR     34  27  75 N8        30.28R WCI  27
$$


...KEY TO REMARKS...
VSB - VISIBILITY IN MILES
WCI - WIND CHILL INDEX
HX  - HEAT INDEX




USA.gov is the U.S. government's official web portal to all federal, state and local government web resources and services.